OpenBCM V2.0.2 (Linux)

Packet Radio Mailbox

IZ3LSV

[San Dona' di P. JN]

 Login: GUEST





  
CX2SA  > KEPS     31.08.12 05:00l 347 Lines 9160 Bytes #999 (0) @ WW
BID : ORB12243.M
Read: GUEST
Subj: Orbital Elements  12243.MISC
Path: IZ3LSV<IR1UAW<IK1NHL<CX2SA
Sent: 120831/0245Z @:CX2SA.SAL.URY.SA #:835 [Salto] FBB7.00e $:ORB12243.M
From: CX2SA@CX2SA.SAL.URY.SA
To  : KEPS@AMSAT


HR AMSAT ORBITAL ELEMENTS FOR MANNED AND MISCELLANEOUS SATELLITES
FROM WA5QGD FORT WORTH,TX August 30, 2012
Send SUBSCRIBE KEPS/UNSUBSCRIBE KEPS to majordomo@amsat.org only
BID: ORB12243.M
TO ALL RADIO AMATEURS BT

Satellite: HUBBLE
Catalog number: 20580
Epoch time:      12241.12217144
Element set:      60
Inclination:      028.4704 deg
RA of node:       032.7181 deg
Eccentricity:    0.0003386
Arg of perigee:   103.9948 deg
Mean anomaly:     256.1080 deg
Mean motion:   15.02711964 rev/day
Decay rate:       6.71e-06 rev/day^2
Epoch rev:            2556
Checksum:              253

Satellite: ISS
Catalog number: 25544
Epoch time:      12243.89946671
Element set:     214
Inclination:      051.6478 deg
RA of node:       109.6447 deg
Eccentricity:    0.0015152
Arg of perigee:   018.9022 deg
Mean anomaly:     073.7037 deg
Mean motion:   15.50185791 rev/day
Decay rate:      7.592e-05 rev/day^2
Epoch rev:           78963
Checksum:              320

Satellite: CO-58
Catalog number: 28895
Epoch time:      12242.65426613
Element set:    0264
Inclination:      097.9050 deg
RA of node:       105.6624 deg
Eccentricity:    0.0016740
Arg of perigee:   282.2985 deg
Mean anomaly:     077.6334 deg
Mean motion:   14.60717163 rev/day
Decay rate:       4.23e-06 rev/day^2
Epoch rev:           36438
Checksum:              318

Satellite: FALCON
Catalog number: 30776
Epoch time:      12242.95397257
Element set:    0438
Inclination:      035.4309 deg
RA of node:       186.1133 deg
Eccentricity:    0.0002811
Arg of perigee:   311.9306 deg
Mean anomaly:     048.1209 deg
Mean motion:   15.08014938 rev/day
Decay rate:      3.191e-05 rev/day^2
Epoch rev:           30139
Checksum:              279

Satellite: MAST
Catalog number: 31126
Epoch time:      12242.98376590
Element set:    0556
Inclination:      097.8754 deg
RA of node:       249.7750 deg
Eccentricity:    0.0092649
Arg of perigee:   240.5056 deg
Mean anomaly:     118.6877 deg
Mean motion:   14.54234786 rev/day
Decay rate:       3.77e-06 rev/day^2
Epoch rev:           28499
Checksum:              353

Satellite: CAPE1
Catalog number: 31130
Epoch time:      12242.59887605
Element set:     554
Inclination:      097.8847 deg
RA of node:       245.7567 deg
Eccentricity:    0.0100027
Arg of perigee:   255.4623 deg
Mean anomaly:     103.5447 deg
Mean motion:   14.53039405 rev/day
Decay rate:       3.78e-06 rev/day^2
Epoch rev:           28443
Checksum:              304

Satellite: COMPASS
Catalog number: 32787
Epoch time:      12243.77117322
Element set:     395
Inclination:      097.7957 deg
RA of node:       303.4413 deg
Eccentricity:    0.0015242
Arg of perigee:   171.6870 deg
Mean anomaly:     188.4580 deg
Mean motion:   14.84245610 rev/day
Decay rate:      1.091e-05 rev/day^2
Epoch rev:           23487
Checksum:              304

Satellite: AAUSAT2
Catalog number: 32788
Epoch time:      12242.71310670
Element set:     387
Inclination:      097.7966 deg
RA of node:       302.8309 deg
Eccentricity:    0.0014909
Arg of perigee:   175.6753 deg
Mean anomaly:     184.4599 deg
Mean motion:   14.84583292 rev/day
Decay rate:      1.186e-05 rev/day^2
Epoch rev:           23474
Checksum:              340

Satellite: DO-64
Catalog number: 32789
Epoch time:      12243.69241781
Element set:     404
Inclination:      097.8068 deg
RA of node:       306.1041 deg
Eccentricity:    0.0014881
Arg of perigee:   168.9178 deg
Mean anomaly:     191.2327 deg
Mean motion:   14.86251387 rev/day
Decay rate:      3.070e-05 rev/day^2
Epoch rev:           23494
Checksum:              323

Satellite: CO-66
Catalog number: 32791
Epoch time:      12242.64470217
Element set:    0385
Inclination:      097.7935 deg
RA of node:       302.0193 deg
Eccentricity:    0.0015379
Arg of perigee:   176.4393 deg
Mean anomaly:     183.6897 deg
Mean motion:   14.83615643 rev/day
Decay rate:       8.49e-06 rev/day^2
Epoch rev:           23463
Checksum:              340

Satellite: RS-30
Catalog number: 32953
Epoch time:      12243.58040114
Element set:     101
Inclination:      082.4971 deg
RA of node:       248.8735 deg
Eccentricity:    0.0019537
Arg of perigee:   141.9334 deg
Mean anomaly:     218.3130 deg
Mean motion:   12.43027077 rev/day
Decay rate:        1.0e-07 rev/day^2
Epoch rev:           19380
Checksum:              264

Satellite: PHARMSAT
Catalog number: 35002
Epoch time:      12226.86484473
Element set:      78
Inclination:      040.4341 deg
RA of node:       050.6671 deg
Eccentricity:    0.0012079
Arg of perigee:   300.9773 deg
Mean anomaly:     059.0492 deg
Mean motion:   16.39309245 rev/day
Decay rate:   7.728342e-02 rev/day^2
Epoch rev:           18355
Checksum:              302

Satellite: METEOR-M
Catalog number: 35865
Epoch time:      12243.81167309
Element set:     732
Inclination:      098.6475 deg
RA of node:       296.7108 deg
Eccentricity:    0.0002112
Arg of perigee:   177.5261 deg
Mean anomaly:     182.5927 deg
Mean motion:   14.21867748 rev/day
Decay rate:       -2.7e-07 rev/day^2
Epoch rev:           15320
Checksum:              307

Satellite: RS-38
Catalog number: 35869
Epoch time:      12243.68092697
Element set:     730
Inclination:      098.6427 deg
RA of node:       296.5658 deg
Eccentricity:    0.0004223
Arg of perigee:   187.4762 deg
Mean anomaly:     172.6354 deg
Mean motion:   14.22083793 rev/day
Decay rate:        6.0e-08 rev/day^2
Epoch rev:           15320
Checksum:              330

Satellite: JUGNU
Catalog number: 37839
Epoch time:      12242.45052923
Element set:    0217
Inclination:      019.9629 deg
RA of node:       274.3908 deg
Eccentricity:    0.0018983
Arg of perigee:   312.0553 deg
Mean anomaly:     047.8219 deg
Mean motion:   14.12075531 rev/day
Decay rate:       6.20e-06 rev/day^2
Epoch rev:           04561
Checksum:              291

Satellite: SRMSAT
Catalog number: 37841
Epoch time:      12242.46328872
Element set:    0219
Inclination:      019.9720 deg
RA of node:       280.6240 deg
Eccentricity:    0.0012121
Arg of perigee:   274.0380 deg
Mean anomaly:     085.8689 deg
Mean motion:   14.10156374 rev/day
Decay rate:       2.64e-06 rev/day^2
Epoch rev:           04555
Checksum:              283

Satellite: RAX-2
Catalog number: 37853
Epoch time:      12242.93037434
Element set:    0284
Inclination:      101.7073 deg
RA of node:       316.7042 deg
Eccentricity:    0.0245732
Arg of perigee:   140.6567 deg
Mean anomaly:     221.2771 deg
Mean motion:   14.80501486 rev/day
Decay rate:      5.550e-05 rev/day^2
Epoch rev:           04531
Checksum:              276

Satellite: AUBIESAT
Catalog number: 37854
Epoch time:      12242.93262894
Element set:    0279
Inclination:      101.7114 deg
RA of node:       317.0564 deg
Eccentricity:    0.0246628
Arg of perigee:   139.8203 deg
Mean anomaly:     222.1527 deg
Mean motion:   14.80939734 rev/day
Decay rate:      6.183e-05 rev/day^2
Epoch rev:           04530
Checksum:              301

Satellite: HRBE
Catalog number: 37855
Epoch time:      12242.88649180
Element set:    0284
Inclination:      101.7096 deg
RA of node:       316.9188 deg
Eccentricity:    0.0247095
Arg of perigee:   140.1732 deg
Mean anomaly:     221.7883 deg
Mean motion:   14.80762158 rev/day
Decay rate:      5.537e-05 rev/day^2
Epoch rev:           04529
Checksum:              323

Satellite: RS-39
Catalog number: 38051
Epoch time:      12243.83293256
Element set:     656
Inclination:      051.6382 deg
RA of node:       163.8408 deg
Eccentricity:    0.0012138
Arg of perigee:   310.0470 deg
Mean anomaly:     116.4304 deg
Mean motion:   15.25401498 rev/day
Decay rate:      6.677e-05 rev/day^2
Epoch rev:            3336
Checksum:              289

Satellite: E-STAR
Catalog number: 38079
Epoch time:      12243.70875091
Element set:     468
Inclination:      069.4813 deg
RA of node:       144.8086 deg
Eccentricity:    0.0724004
Arg of perigee:   153.7464 deg
Mean anomaly:     210.2375 deg
Mean motion:   14.19175023 rev/day
Decay rate:     3.1219e-04 rev/day^2
Epoch rev:            2814
Checksum:              295

Satellite: GOLIAT
Catalog number: 38085
Epoch time:      12243.68326583
Element set:     437
Inclination:      069.4852 deg
RA of node:       145.4003 deg
Eccentricity:    0.0730509
Arg of perigee:   154.2104 deg
Mean anomaly:     209.7534 deg
Mean motion:   14.18105863 rev/day
Decay rate:     3.1203e-04 rev/day^2
Epoch rev:            2812
Checksum:              279

Satellite: HORYU-2
Catalog number: 38340
Epoch time:      12242.88211159
Element set:     118
Inclination:      098.1781 deg
RA of node:       182.7949 deg
Eccentricity:    0.0014042
Arg of perigee:   096.3926 deg
Mean anomaly:     263.8900 deg
Mean motion:   14.70115456 rev/day
Decay rate:       9.41e-06 rev/day^2
Epoch rev:            1530
Checksum:              291

Satellite: RS-40
Catalog number: 38736
Epoch time:      12243.70058713
Element set:      35
Inclination:      082.4816 deg
RA of node:       336.2415 deg
Eccentricity:    0.0017785
Arg of perigee:   239.6149 deg
Mean anomaly:     120.3173 deg
Mean motion:   12.42646187 rev/day
Decay rate:        1.0e-07 rev/day^2
Epoch rev:             416
Checksum:              278



Read previous mail | Read next mail


 01.05.2026 21:24:34lGo back Go up